• In Netherlands
  • List of Countries
  • For 7 days
  • Water Temperature
  • Satellite Maps
  • Weather Map
  • Weather Widgets
  • user-avatar
    Login

    Hourly Weather Kotonu

    Today, 27 June, Tuesday

    Time Temperature Precipitation Wind Pressure Humidity
    00:00 +27°C° 0 mm 2 mps 759 mmHg 87%
    01:00 +27°C° 0 mm 2 mps 759 mmHg 87%
    02:00 +27°C° 0 mm 2 mps 759 mmHg 88%
    03:00 +27°C° 0 mm 2 mps 759 mmHg 88%
    04:00 +27°C° 0.1 mm 2 mps 759 mmHg 88%
    05:00 +27°C° 0.1 mm 2 mps 759 mmHg 88%
    06:00 +27°C° 0.1 mm 2 mps 759 mmHg 89%
    07:00 +28°C° 0.3 mm 3 mps 760 mmHg 84%
    08:00 +29°C° 0.3 mm 3 mps 760 mmHg 78%
    09:00 +30°C° 0.3 mm 3 mps 760 mmHg 73%
    10:00 +31°C° 0 mm 3 mps 760 mmHg 68%
    11:00 +33°C° 0 mm 3 mps 760 mmHg 63%
    12:00 +34°C° 0 mm 3 mps 760 mmHg 57%
    13:00 +34°C° 0 mm 3 mps 759 mmHg 58%
    14:00 +33°C° 0 mm 4 mps 758 mmHg 60%
    15:00 +33°C° 0 mm 4 mps 758 mmHg 61%
    16:00 +32°C° 0 mm 4 mps 758 mmHg 66%
    17:00 +30°C° 0 mm 4 mps 758 mmHg 71%
    18:00 +28°C° 0 mm 4 mps 758 mmHg 76%
    19:00 +28°C° 0 mm 3 mps 759 mmHg 79%
    20:00 +28°C° 0 mm 3 mps 759 mmHg 82%
    21:00 +27°C° 0 mm 3 mps 760 mmHg 86%
    22:00 +27°C° 0 mm 3 mps 760 mmHg 87%
    23:00 +27°C° 0 mm 3 mps 760 mmHg 88%

    Tomorrow, 28 June, Wednesday

    Time Temperature Precipitation Wind Pressure Humidity
    00:00 +27°C° 0 mm 4 mps 760 mmHg 90%
    01:00 +27°C° 0.1 mm 3 mps 760 mmHg 90%
    02:00 +27°C° 0.1 mm 3 mps 760 mmHg 91%
    03:00 +27°C° 0.1 mm 3 mps 759 mmHg 91%
    04:00 +27°C° 0.1 mm 3 mps 759 mmHg 90%
    05:00 +27°C° 0.1 mm 3 mps 759 mmHg 89%
    06:00 +27°C° 0.1 mm 3 mps 759 mmHg 88%
    07:00 +29°C° 0 mm 3 mps 760 mmHg 81%
    08:00 +30°C° 0 mm 3 mps 760 mmHg 73%
    09:00 +33°C° 0 mm 4 mps 761 mmHg 66%
    10:00 +34°C° 0.1 mm 4 mps 760 mmHg 63%
    11:00 +34°C° 0.1 mm 4 mps 760 mmHg 60%
    12:00 +35°C° 0.1 mm 4 mps 760 mmHg 57%
    13:00 +35°C° 0.1 mm 4 mps 759 mmHg 58%
    14:00 +34°C° 0.1 mm 4 mps 758 mmHg 59%
    15:00 +34°C° 0.1 mm 5 mps 758 mmHg 60%
    16:00 +33°C° 0.1 mm 5 mps 758 mmHg 66%
    17:00 +30°C° 0.1 mm 4 mps 758 mmHg 72%
    18:00 +29°C° 0.1 mm 4 mps 758 mmHg 78%
    19:00 +29°C° 0 mm 4 mps 759 mmHg 80%
    20:00 +28°C° 0 mm 4 mps 759 mmHg 82%
    21:00 +28°C° 0 mm 4 mps 760 mmHg 84%
    22:00 +28°C° 0 mm 4 mps 760 mmHg 85%
    23:00 +28°C° 0 mm 4 mps 760 mmHg 85%

    Day after tomorrow, 29 June, Thursday

    Time Temperature Precipitation Wind Pressure Humidity
    00:00 +28°C° 0 mm 4 mps 760 mmHg 85%
    01:00 +28°C° 0 mm 4 mps 759 mmHg 86%
    02:00 +27°C° 0 mm 4 mps 759 mmHg 86%
    03:00 +27°C° 0 mm 3 mps 759 mmHg 87%
    04:00 +27°C° 0.5 mm 3 mps 759 mmHg 88%
    05:00 +27°C° 0.5 mm 3 mps 759 mmHg 90%
    06:00 +27°C° 0.5 mm 2 mps 760 mmHg 91%
    07:00 +27°C° 0.3 mm 2 mps 760 mmHg 88%
    08:00 +28°C° 0.3 mm 3 mps 760 mmHg 84%
    09:00 +29°C° 0.3 mm 3 mps 761 mmHg 80%
    10:00 +29°C° 0.8 mm 3 mps 761 mmHg 77%
    11:00 +30°C° 0.8 mm 3 mps 760 mmHg 73%
    12:00 +31°C° 0.8 mm 3 mps 760 mmHg 69%
    13:00 +32°C° 0.1 mm 4 mps 759 mmHg 69%
    14:00 +32°C° 0.1 mm 4 mps 759 mmHg 69%
    15:00 +30°C° 0.1 mm 4 mps 758 mmHg 69%
    16:00 +30°C° 0 mm 4 mps 758 mmHg 72%
    17:00 +29°C° 0 mm 4 mps 758 mmHg 75%
    18:00 +28°C° 0 mm 4 mps 758 mmHg 78%
    19:00 +28°C° 0 mm 4 mps 759 mmHg 79%
    20:00 +28°C° 0 mm 4 mps 759 mmHg 80%
    21:00 +27°C° 0 mm 4 mps 760 mmHg 81%
    22:00 +27°C° 0 mm 4 mps 760 mmHg 82%
    23:00 +27°C° 0 mm 4 mps 760 mmHg 83%

    30 June, Friday

    Time Temperature Precipitation Wind Pressure Humidity
    00:00 +27°C° 0 mm 4 mps 760 mmHg 84%
    01:00 +27°C° 0.1 mm 4 mps 760 mmHg 84%
    02:00 +27°C° 0.1 mm 4 mps 759 mmHg 85%
    03:00 +27°C° 0.1 mm 3 mps 759 mmHg 85%
    04:00 +27°C° 0.3 mm 3 mps 759 mmHg 86%
    05:00 +27°C° 0.3 mm 3 mps 760 mmHg 87%
    06:00 +26°C° 0.3 mm 3 mps 760 mmHg 89%
    07:00 +28°C° 0 mm 3 mps 760 mmHg 81%
    08:00 +29°C° 0 mm 4 mps 761 mmHg 73%
    09:00 +32°C° 0 mm 4 mps 761 mmHg 66%
    10:00 +33°C° 0 mm 4 mps 761 mmHg 62%
    11:00 +34°C° 0 mm 4 mps 760 mmHg 57%
    12:00 +35°C° 0 mm 4 mps 760 mmHg 53%
    13:00 +35°C° 0.3 mm 4 mps 759 mmHg 56%
    14:00 +34°C° 0.3 mm 5 mps 758 mmHg 60%
    15:00 +33°C° 0.3 mm 5 mps 758 mmHg 63%
    16:00 +32°C° 0.3 mm 5 mps 758 mmHg 68%
    17:00 +30°C° 0.3 mm 5 mps 759 mmHg 72%
    18:00 +29°C° 0.3 mm 5 mps 759 mmHg 76%
    19:00 +28°C° 0.1 mm 5 mps 760 mmHg 78%
    20:00 +28°C° 0.1 mm 5 mps 760 mmHg 79%
    21:00 +28°C° 0.1 mm 5 mps 761 mmHg 81%
    22:00 +28°C° 0 mm 5 mps 760 mmHg 82%
    23:00 +27°C° 0 mm 5 mps 760 mmHg 84%

    1 July, Saturday

    Time Temperature Precipitation Wind Pressure Humidity
    00:00 +27°C° 0 mm 5 mps 760 mmHg 85%
    01:00 +27°C° 0.1 mm 4 mps 759 mmHg 86%
    02:00 +27°C° 0.1 mm 4 mps 759 mmHg 86%
    03:00 +27°C° 0.1 mm 4 mps 759 mmHg 87%
    04:00 +27°C° 0.7 mm 4 mps 759 mmHg 88%
    05:00 +27°C° 0.7 mm 3 mps 760 mmHg 89%
    06:00 +26°C° 0.7 mm 3 mps 760 mmHg 89%
    07:00 +28°C° 0.4 mm 3 mps 760 mmHg 83%
    08:00 +29°C° 0.4 mm 4 mps 761 mmHg 76%
    09:00 +32°C° 0.4 mm 4 mps 761 mmHg 69%
    10:00 +32°C° 1.2 mm 4 mps 761 mmHg 69%
    11:00 +32°C° 1.2 mm 5 mps 760 mmHg 69%
    12:00 +32°C° 1.2 mm 5 mps 760 mmHg 69%
    13:00 +32°C° 0.3 mm 5 mps 759 mmHg 69%
    14:00 +30°C° 0.3 mm 5 mps 759 mmHg 70%
    15:00 +30°C° 0.3 mm 5 mps 758 mmHg 71%
    16:00 +29°C° 0 mm 5 mps 758 mmHg 74%
    17:00 +29°C° 0 mm 5 mps 759 mmHg 78%
    18:00 +28°C° 0 mm 4 mps 759 mmHg 81%
    19:00 +28°C° 0 mm 4 mps 759 mmHg 83%
    20:00 +27°C° 0 mm 4 mps 760 mmHg 85%
    21:00 +27°C° 0 mm 4 mps 760 mmHg 86%
    22:00 +27°C° 0 mm 4 mps 760 mmHg 87%
    23:00 +27°C° 0 mm 4 mps 760 mmHg 88%

    2 July, Sunday

    Time Temperature Precipitation Wind Pressure Humidity
    00:00 +27°C° 0 mm 4 mps 759 mmHg 88%
    01:00 +27°C° 0 mm 4 mps 759 mmHg 88%
    02:00 +27°C° 0 mm 4 mps 759 mmHg 88%
    03:00 +27°C° 0 mm 4 mps 759 mmHg 88%
    04:00 +27°C° 0.1 mm 4 mps 759 mmHg 87%
    05:00 +27°C° 0.1 mm 4 mps 759 mmHg 87%
    06:00 +27°C° 0.1 mm 4 mps 760 mmHg 87%
    07:00 +28°C° 0.6 mm 4 mps 760 mmHg 85%
    08:00 +28°C° 0.6 mm 4 mps 760 mmHg 83%
    09:00 +29°C° 0.6 mm 4 mps 761 mmHg 81%
    10:00 +29°C° 1.6 mm 4 mps 760 mmHg 77%
    11:00 +30°C° 1.6 mm 4 mps 760 mmHg 74%
    12:00 +31°C° 1.6 mm 3 mps 759 mmHg 70%
    13:00 +32°C° 0.8 mm 4 mps 759 mmHg 71%
    14:00 +30°C° 0.8 mm 4 mps 758 mmHg 72%
    15:00 +30°C° 0.8 mm 4 mps 757 mmHg 72%
    16:00 +29°C° 0.4 mm 4 mps 758 mmHg 75%
    17:00 +29°C° 0.4 mm 4 mps 758 mmHg 78%
    18:00 +28°C° 0.4 mm 4 mps 758 mmHg 81%
    19:00 +28°C° 0.1 mm 4 mps 759 mmHg 83%
    20:00 +27°C° 0.1 mm 4 mps 759 mmHg 84%
    21:00 +27°C° 0.1 mm 4 mps 760 mmHg 86%
    22:00 +27°C° 0.5 mm 4 mps 760 mmHg 87%
    23:00 +27°C° 0.5 mm 4 mps 760 mmHg 87%
    Show more